This is the latest recevied weather packets stored in our database for station/object PERPET. If no packets are shown the sender has not sent any weather packets the latest 10 day(s).
| Time | Temp. | Humidity | Pressure | Rain* | Wind** | Luminosity | Snow |
|---|---|---|---|---|---|---|---|
| 1777579049 | 11.11° C | - | 1019.5 hPa | 0 mm | - | - | - |
| 1777578449 | 11.11° C | - | 1019.5 hPa | 0 mm | - | - | - |
| 1777577849 | 11.11° C | - | 1019.5 hPa | 0 mm | - | - | - |
| 1777577249 | 11.11° C | - | 1019.5 hPa | 0 mm | - | - | - |
| 1777573648 | 11.11° C | - | 1019.6 hPa | 0 mm | - | - | - |
| 1777571848 | 13.89° C | - | 1019.5 hPa | 0 mm | - | - | - |
| 1777565848 | 11.67° C | - | 1019.7 hPa | 0 mm | - | - | - |
| 1777564948 | 11.67° C | - | 1019.7 hPa | 0 mm | - | - | - |
| 1777564648 | 11.11° C | - | 1019.7 hPa | 0 mm | - | - | - |
| 1777563448 | 10° C | - | 1019.5 hPa | 0 mm | - | - | - |
| 1777562848 | 9.44° C | - | 1019.2 hPa | 0 mm | - | - | - |
| 1777559848 | 8.89° C | - | 1019.1 hPa | 0.25 mm | - | - | - |
| 1777558648 | 9.44° C | - | 1019.6 hPa | 0.25 mm | - | - | - |
| 1777555048 | 8.89° C | - | 1019.8 hPa | 0.51 mm | - | - | - |
| 1777554748 | 8.89° C | - | 1019.7 hPa | 0.51 mm | - | - | - |
| 1777550547 | 8.89° C | - | 1019.7 hPa | 0.25 mm | - | - | - |
| 1777550247 | 8.89° C | - | 1019.7 hPa | 0.25 mm | - | - | - |
| 1777549949 | 8.89° C | - | 1019.6 hPa | 0.25 mm | - | - | - |
| 1777548447 | 7.78° C | - | 1019.8 hPa | 0 mm | - | - | - |
| 1777547847 | 8.33° C | - | 1019.8 hPa | 0 mm | - | - | - |
| 1777547547 | 8.33° C | - | 1019.7 hPa | 0 mm | - | - | - |
| 1777546347 | 8.33° C | - | 1019.3 hPa | 0 mm | - | - | - |
| 1777546047 | 8.89° C | - | 1019.3 hPa | 0 mm | - | - | - |
| 1777545747 | 8.89° C | - | 1019.3 hPa | 0 mm | - | - | - |
| 1777545447 | 9.44° C | - | 1019.3 hPa | 0 mm | - | - | - |
* Rain latest hour (hover to see other rain measurements)
** Current wind speed in m/s (hover to see current wind gust speed)